CW5363 Weather Reports


time (UTC)temp
C
wind
direction
speed
KPH
gust
KPH
rain 1hr
cm
rain 24hr
cm
rain mn
cm
humidity
%
barometer
mb
20260509024842 12 148 0.0 0.0 0.00 0.00 0.00 88 1014.6
20260509024327 12 148 0.0 0.0 0.00 0.00 0.00 88 1014.6
20260509023827 12 148 0.0 0.0 0.00 0.00 0.00 88 1014.6
20260509023327 12 148 0.0 0.0 0.00 0.00 0.00 88 1014.5
20260509022832 12 148 0.0 0.0 0.00 0.00 0.00 88 1014.5
20260509022334 12 148 0.0 0.0 0.00 0.00 0.00 88 1014.5
20260509021833 12 148 0.0 0.0 0.00 0.00 0.00 88 1014.4
20260509021325 12 148 0.0 0.0 0.00 0.00 0.00 88 1014.4
20260509020846 12 148 0.0 0.0 0.00 0.00 0.00 88 1014.4
20260509020325 12 148 0.0 0.0 0.00 0.00 0.00 88 1014.7
20260509015838 12 148 0.0 0.0 0.00 0.00 0.00 87 1014.7
20260509015339 12 148 0.0 0.0 0.00 0.00 0.00 87 1014.7
20260509014838 12 148 0.0 0.0 0.00 0.00 0.00 87 1014.5
20260509014341 12 148 0.0 0.0 0.00 0.00 0.00 87 1014.5
20260509013844 12 148 0.0 0.0 0.00 0.00 0.00 86 1014.5
20260509013327 12 148 0.0 0.0 0.00 0.00 0.00 87 1014.1
20260509012833 12 148 0.0 0.0 0.00 0.00 0.00 86 1014.1
20260509012336 12 148 0.0 0.0 0.00 0.00 0.00 87 1014.1
20260509011855 12 148 0.0 0.0 0.00 0.00 0.00 87 1014.2
20260509011338 12 148 0.0 0.0 0.00 0.00 0.00 86 1014.2
20260509010843 12 148 0.0 0.0 0.00 0.00 0.00 85 1014.2
20260509010342 12 148 0.0 0.0 0.00 0.00 0.00 85 1014.1
20260509005828 12 148 0.0 0.0 0.00 0.00 0.00 84 1014.1
20260509005328 13 148 0.0 0.0 0.00 0.00 0.00 83 1014.1
20260509004831 13 148 0.0 0.0 0.00 0.00 0.00 83 1014.1
20260509004342 13 148 0.0 0.0 0.00 0.00 0.00 82 1014.1
20260509003844 13 148 0.0 0.0 0.00 0.00 0.00 81 1014.1
20260509003405 13 148 0.0 0.0 0.00 0.00 0.00 80 1014.0
20260509002826 13 148 0.0 0.0 0.00 0.00 0.00 79 1014.0
20260509002327 14 148 0.0 0.0 0.00 0.00 0.00 78 1014.0
20260509001829 14 148 0.0 0.0 0.00 0.00 0.00 78 1013.7
20260509001400 14 148 0.0 0.0 0.00 0.00 0.00 77 1013.7
20260509000840 14 148 0.0 1.6 0.00 0.00 0.00 77 1013.7
20260509000340 14 148 0.0 1.6 0.00 0.00 0.00 76 1013.7
20260508235903 14 148 0.0 1.6 0.00 0.00 0.00 76 1013.7
20260508235343 14 148 0.0 1.6 0.00 0.00 0.00 76 1013.7
20260508234843 14 148 0.0 9.7 0.00 0.00 0.00 75 1013.6
20260508234348 15 148 0.0 9.7 0.00 0.00 0.00 74 1013.6
20260508233827 15 94 0.0 0.0 0.00 0.00 0.00 74 1013.6
20260508233327 15 94 0.0 0.0 0.00 0.00 0.00 74 1013.6
20260508232838 15 101 0.0 0.0 0.00 0.00 0.00 74 1013.6
20260508232324 15 22 0.0 0.0 0.00 0.00 0.00 74 1013.6
20260508231846 15 111 0.0 0.0 0.00 0.00 0.00 73 1013.6
20260508231339 15 72 0.0 0.0 0.00 0.00 0.00 73 1013.6
20260508230840 15 109 0.0 0.0 0.00 0.00 0.00 73 1013.6
20260508230342 15 109 0.0 0.0 0.00 0.00 0.00 72 1013.5
20260508225829 15 113 0.0 8.0 0.00 0.00 0.00 72 1013.5
20260508225351 15 329 1.6 9.7 0.00 0.00 0.00 71 1013.5
20260508224829 15 236 1.6 9.7 0.00 0.00 0.00 71 1013.6
20260508224353 15 113 3.2 4.8 0.00 0.00 0.00 71 1013.6
20260508223834 15 140 1.6 6.4 0.00 0.00 0.00 71 1013.6
20260508223353 15 321 1.6 6.4 0.00 0.00 0.00 70 1013.6
20260508222825 15 111 3.2 8.0 0.00 0.00 0.00 70 1013.6
20260508222327 16 355 1.6 8.0 0.00 0.00 0.00 70 1013.6
20260508221826 16 180 1.6 8.0 0.00 0.00 0.00 70 1013.5
20260508221338 16 144 0.0 8.0 0.00 0.00 0.00 69 1013.5
20260508220840 16 144 3.2 8.0 0.00 0.00 0.00 69 1013.5
20260508220339 16 123 1.6 6.4 0.00 0.00 0.00 69 1013.2
20260508215845 16 126 3.2 8.0 0.00 0.00 0.00 68 1013.2
20260508215346 16 175 3.2 9.7 0.00 0.00 0.00 68 1013.2
20260508214845 16 133 4.8 9.7 0.00 0.00 0.00 68 1013.6
20260508214358 16 105 3.2 11.3 0.00 0.00 0.00 67 1013.6
20260508213838 16 94 4.8 11.3 0.00 0.00 0.00 67 1013.6
20260508213325 16 190 0.0 8.0 0.00 0.00 0.00 67 1013.5
20260508212841 16 128 0.0 9.7 0.00 0.00 0.00 67 1013.5
20260508212346 16 229 3.2 9.7 0.00 0.00 0.00 67 1013.5
20260508211845 16 200 3.2 12.9 0.00 0.00 0.00 66 1013.3
20260508211331 16 304 1.6 12.9 0.00 0.00 0.00 65 1013.3
20260508210834 16 180 1.6 12.9 0.00 0.00 0.00 65 1013.3
20260508210333 16 153 1.6 11.3 0.00 0.00 0.00 65 1013.2
20260508205844 17 150 6.4 12.9 0.00 0.00 0.00 64 1013.2
20260508205345 17 189 4.8 12.9 0.00 0.00 0.00 64 1013.2
20260508204824 17 91 1.6 11.3 0.00 0.00 0.00 64 1013.1
20260508204340 17 77 3.2 9.7 0.00 0.00 0.00 63 1013.1
20260508203844 17 138 0.0 8.0 0.00 0.00 0.00 63 1013.1
20260508203344 17 142 3.2 16.1 0.00 0.00 0.00 63 1013.4
20260508202836 17 184 3.2 16.1 0.00 0.00 0.00 62 1013.4
20260508202343 17 79 4.8 12.9 0.00 0.00 0.00 61 1013.4
20260508201827 17 112 6.4 16.1 0.00 0.00 0.00 60 1013.4
20260508201333 17 134 4.8 16.1 0.00 0.00 0.00 60 1013.4
20260508200835 18 210 4.8 9.7 0.00 0.00 0.00 59 1013.4
20260508200354 18 133 4.8 8.0 0.00 0.00 0.00 61 1013.5
20260508195837 18 41 1.6 8.0 0.00 0.00 0.00 62 1013.5
20260508195339 18 166 3.2 9.7 0.00 0.00 0.00 60 1013.5
20260508194839 18 196 3.2 9.7 0.00 0.00 0.00 60 1013.8
20260508194326 18 217 3.2 9.7 0.00 0.00 0.00 59 1013.8
20260508193829 18 153 3.2 9.7 0.00 0.00 0.00 60 1013.8
20260508193332 18 139 4.8 9.7 0.00 0.00 0.00 59 1014.1
20260508192842 18 153 3.2 8.0 0.00 0.00 0.00 58 1014.1
20260508192404 18 180 3.2 12.9 0.00 0.00 0.00 59 1014.1
20260508191841 17 109 4.8 12.9 0.00 0.00 0.00 58 1014.2
20260508191327 18 205 6.4 9.7 0.00 0.00 0.00 57 1014.2
20260508190830 18 157 4.8 9.7 0.00 0.00 0.00 57 1014.2
20260508190328 18 296 4.8 9.7 0.00 0.00 0.00 58 1014.5
20260508185840 18 182 3.2 9.7 0.00 0.00 0.00 57 1014.5
20260508185342 18 130 3.2 14.5 0.00 0.00 0.00 57 1014.5
20260508184840 18 97 3.2 11.3 0.00 0.00 0.00 59 1014.7
20260508184328 18 175 6.4 11.3 0.00 0.00 0.00 57 1014.7
20260508183830 18 260 6.4 11.3 0.00 0.00 0.00 57 1014.7
20260508183328 17 147 1.6 11.3 0.00 0.00 0.00 60 1014.9
20260508182839 17 175 3.2 12.9 0.00 0.00 0.00 58 1014.9
20260508182340 18 109 6.4 12.9 0.00 0.00 0.00 56 1014.9
20260508181842 18 271 3.2 9.7 0.00 0.00 0.00 57 1015.0
20260508181329 18 238 4.8 9.7 0.00 0.00 0.00 56 1015.0
20260508180830 17 259 4.8 9.7 0.00 0.00 0.00 57 1015.0
20260508180329 17 308 4.8 12.9 0.00 0.00 0.00 58 1015.1
20260508175840 17 164 8.0 12.9 0.00 0.00 0.00 57 1015.1
20260508175346 17 139 6.4 9.7 0.00 0.00 0.00 56 1015.1
20260508174845 17 128 4.8 9.7 0.00 0.00 0.00 59 1015.3
20260508174330 17 151 3.2 9.7 0.00 0.00 0.00 58 1015.3
20260508173831 17 174 1.6 8.0 0.00 0.00 0.00 59 1015.3
20260508173330 17 149 4.8 11.3 0.00 0.00 0.00 59 1015.5
20260508172826 17 216 6.4 11.3 0.00 0.00 0.00 59 1015.5
20260508172331 17 177 4.8 9.7 0.00 0.00 0.00 58 1015.5
20260508171850 16 106 4.8 14.5 0.00 0.00 0.00 58 1015.7
20260508171341 16 177 3.2 14.5 0.00 0.00 0.00 60 1015.7
20260508170841 16 161 3.2 11.3 0.00 0.00 0.00 60 1015.7
20260508170341 16 167 4.8 11.3 0.00 0.00 0.00 62 1016.0
20260508165826 16 191 3.2 9.7 0.00 0.00 0.00 61 1016.0
20260508165329 16 155 1.6 8.0 0.00 0.00 0.00 61 1016.0
20260508164828 16 84 3.2 9.7 0.00 0.00 0.00 61 1016.4
20260508164344 16 209 3.2 9.7 0.00 0.00 0.00 57 1016.4
20260508163828 17 90 3.2 9.7 0.00 0.00 0.00 58 1016.4
20260508163326 17 117 3.2 11.3 0.00 0.00 0.00 59 1016.4
20260508162840 16 332 3.2 11.3 0.00 0.00 0.00 58 1016.4
20260508162341 16 115 3.2 9.7 0.00 0.00 0.00 61 1016.4
20260508161840 16 169 4.8 8.0 0.00 0.00 0.00 62 1016.4
20260508161346 16 329 3.2 9.7 0.00 0.00 0.00 60 1016.4
20260508160827 16 208 4.8 11.3 0.00 0.00 0.00 61 1016.4
20260508160329 16 67 3.2 8.0 0.00 0.00 0.00 65 1016.6
20260508155832 16 136 4.8 8.0 0.00 0.00 0.00 62 1016.6
20260508155333 16 207 3.2 8.0 0.00 0.00 0.00 61 1016.6
20260508154832 16 138 3.2 11.3 0.00 0.00 0.00 61 1016.9
20260508154326 16 176 4.8 11.3 0.00 0.00 0.00 63 1016.9
20260508153828 15 76 1.6 9.7 0.00 0.00 0.00 63 1016.9
20260508153330 15 169 3.2 9.7 0.00 0.00 0.00 61 1016.9
20260508152903 16 209 4.8 9.7 0.00 0.00 0.00 61 1016.9
20260508152404 16 146 4.8 9.7 0.00 0.00 0.00 63 1016.9
20260508151903 16 126 0.0 8.0 0.00 0.00 0.00 62 1016.9
20260508151326 16 118 0.0 8.0 0.00 0.00 0.00 64 1016.9
20260508150847 15 157 0.0 0.0 0.00 0.00 0.00 65 1016.9
20260508150327 15 181 0.0 6.4 0.00 0.00 0.00 65 1016.9
20260508145838 15 69 1.6 9.7 0.00 0.00 0.00 63 1016.9
20260508145340 15 65 3.2 9.7 0.00 0.00 0.00 62 1016.9
20260508144902 15 172 0.0 0.0 0.00 0.00 0.00 62 1016.9
20260508144345 15 184 0.0 0.0 0.00 0.00 0.00 61 1016.9
20260508143848 15 263 0.0 0.0 0.00 0.00 0.00 61 1016.9
20260508143345 15 234 0.0 0.0 0.00 0.00 0.00 63 1017.0
20260508142857 15 333 0.0 0.0 0.00 0.00 0.00 62 1017.0
20260508142341 14 76 0.0 0.0 0.00 0.00 0.00 65 1017.0
20260508141840 13 76 0.0 0.0 0.00 0.00 0.00 65 1017.2
20260508141328 13 122 0.0 0.0 0.00 0.00 0.00 66 1017.2
20260508140828 13 250 0.0 0.0 0.00 0.00 0.00 70 1017.2
20260508140332 13 250 0.0 0.0 0.00 0.03 0.00 74 1017.4
20260508135902 12 250 0.0 0.0 0.00 0.03 0.00 71 1017.4
20260508135346 12 250 0.0 0.0 0.00 0.03 0.00 73 1017.4
20260508134826 12 240 0.0 0.0 0.00 0.03 0.00 78 1017.5
20260508134330 12 240 0.0 0.0 0.00 0.03 0.00 76 1017.5
20260508133850 11 240 0.0 0.0 0.00 0.03 0.00 79 1017.5
20260508133348 11 240 0.0 0.0 0.00 0.03 0.00 80 1017.4
20260508132842 11 240 0.0 0.0 0.00 0.03 0.00 85 1017.4
20260508132345 10 240 0.0 0.0 0.00 0.03 0.00 88 1017.4
20260508131904 10 240 0.0 0.0 0.00 0.03 0.00 92 1017.1
20260508131330 9 240 0.0 0.0 0.00 0.03 0.00 93 1017.1
20260508130851 9 240 0.0 0.0 0.00 0.03 0.00 93 1017.1
20260508130329 8 240 0.0 0.0 0.00 0.08 0.00 94 1017.0
20260508125845 8 240 0.0 0.0 0.00 0.08 0.00 94 1017.0
20260508125327 8 241 0.0 0.0 0.00 0.08 0.00 95 1017.0
20260508124826 8 257 0.0 0.0 0.00 0.08 0.00 96 1017.0
20260508124342 8 257 0.0 0.0 0.00 0.08 0.00 97 1017.0
20260508123904 7 257 0.0 0.0 0.00 0.08 0.00 97 1017.0
20260508123342 7 257 0.0 0.0 0.00 0.08 0.00 98 1016.9
20260508122829 7 257 0.0 0.0 0.00 0.08 0.00 97 1016.9
20260508122330 7 257 0.0 0.0 0.00 0.08 0.00 98 1016.9
20260508121829 7 257 0.0 0.0 0.00 0.08 0.00 98 1016.7
20260508121341 6 257 0.0 0.0 0.00 0.08 0.00 97 1016.7
20260508120845 6 257 0.0 0.0 0.00 0.08 0.00 97 1016.7
20260508120326 6 257 0.0 0.0 0.00 0.23 0.00 97 1016.6
20260508115851 6 257 0.0 0.0 0.00 0.23 0.00 97 1016.6
20260508115332 6 257 0.0 0.0 0.00 0.23 0.00 97 1016.6
20260508114831 6 257 0.0 0.0 0.00 0.23 0.00 96 1016.4
20260508114343 6 257 0.0 0.0 0.00 0.23 0.00 97 1016.4
20260508113845 6 257 0.0 0.0 0.00 0.23 0.00 96 1016.4
20260508113344 6 257 0.0 0.0 0.00 0.23 0.00 96 1016.3
20260508112848 6 257 0.0 0.0 0.00 0.23 0.00 96 1016.3
20260508112328 6 257 0.0 0.0 0.00 0.23 0.00 96 1016.3
20260508111827 6 257 0.0 0.0 0.00 0.23 0.00 96 1015.9
20260508111339 6 257 0.0 0.0 0.00 0.23 0.00 96 1015.9
20260508110840 6 257 0.0 0.0 0.00 0.23 0.00 96 1015.9
20260508110340 6 257 0.0 0.0 0.00 0.38 0.00 95 1015.8
20260508105827 6 257 0.0 0.0 0.00 0.38 0.00 95 1015.8
20260508105329 6 257 0.0 0.0 0.00 0.38 0.00 95 1015.8
20260508104849 6 257 0.0 0.0 0.00 0.38 0.00 95 1015.5
20260508104339 6 257 0.0 0.0 0.00 0.38 0.00 95 1015.5
20260508103844 6 257 0.0 0.0 0.00 0.38 0.00 95 1015.5
20260508103402 6 257 0.0 0.0 0.00 0.38 0.00 95 1015.2
20260508102827 6 257 0.0 0.0 0.00 0.38 0.00 95 1015.2
20260508102331 6 257 0.0 0.0 0.00 0.38 0.00 94 1015.2
20260508101831 6 257 0.0 0.0 0.00 0.38 0.00 94 1015.2
20260508101405 6 257 0.0 0.0 0.00 0.38 0.00 94 1015.2
20260508100845 6 257 0.0 0.0 0.00 0.38 0.00 93 1015.2
20260508100324 6 257 0.0 0.0 0.00 0.38 0.00 93 1014.8
20260508095841 6 257 0.0 0.0 0.00 0.38 0.00 93 1014.8
20260508095342 6 257 0.0 0.0 0.00 0.38 0.00 93 1014.8
20260508094843 6 257 0.0 0.0 0.00 0.38 0.00 93 1014.7
20260508094328 6 257 0.0 0.0 0.00 0.38 0.00 93 1014.7
20260508093829 6 257 0.0 0.0 0.00 0.38 0.00 93 1014.7
20260508093327 6 257 0.0 0.0 0.00 0.38 0.00 93 1014.6
20260508092901 6 257 0.0 0.0 0.00 0.38 0.00 93 1014.6
20260508092340 7 257 0.0 0.0 0.00 0.38 0.00 92 1014.6
20260508091840 7 257 0.0 0.0 0.00 0.38 0.00 93 1014.7
20260508091347 7 257 0.0 0.0 0.00 0.38 0.00 94 1014.7
20260508090828 7 257 0.0 0.0 0.00 0.38 0.00 94 1014.7
20260508090327 7 257 0.0 0.0 0.00 0.38 0.00 94 1014.7
20260508085832 7 257 0.0 0.0 0.00 0.38 0.00 93 1014.7
20260508085333 7 257 0.0 0.0 0.00 0.38 0.00 93 1014.7
20260508084851 7 257 0.0 0.0 0.00 0.38 0.00 94 1014.5
20260508084342 7 257 0.0 0.0 0.00 0.38 0.00 95 1014.5
20260508083904 7 257 0.0 0.0 0.00 0.38 0.00 95 1014.5
20260508083342 6 257 0.0 0.0 0.00 0.38 0.00 95 1014.5
20260508082833 7 257 0.0 0.0 0.00 0.38 0.00 95 1014.5
20260508082333 7 257 0.0 0.0 0.00 0.38 0.00 95 1014.5
20260508081830 7 257 0.0 0.0 0.00 0.38 0.00 95 1014.4
20260508081344 7 257 0.0 0.0 0.00 0.38 0.00 95 1014.4
20260508080845 7 257 0.0 0.0 0.00 0.38 0.00 95 1014.4
20260508080324 7 257 0.0 0.0 0.00 0.43 0.00 94 1014.1
20260508075833 7 257 0.0 0.0 0.00 0.43 0.00 94 1014.1
20260508075335 7 257 0.0 0.0 0.00 0.43 0.00 94 1014.1
20260508074833 7 257 0.0 0.0 0.00 0.43 0.00 94 1014.2
20260508074337 7 257 0.0 0.0 0.00 0.43 0.00 94 1014.2
20260508073843 7 257 0.0 0.0 0.00 0.43 0.00 93 1014.2
20260508073341 7 257 0.0 0.0 0.00 0.43 0.00 94 1014.1
20260508072842 7 257 0.0 0.0 0.00 0.43 0.00 94 1014.1
20260508072326 7 257 0.0 0.0 0.00 0.43 0.00 93 1014.1
20260508071827 7 257 0.0 0.0 0.00 0.43 0.00 93 1014.1
20260508071402 7 257 0.0 0.0 0.00 0.43 0.00 93 1014.1
20260508070841 8 257 0.0 0.0 0.00 0.43 0.00 92 1014.1
20260508070339 8 257 0.0 0.0 0.00 0.46 0.00 92 1014.1
20260508065828 8 257 0.0 0.0 0.00 0.46 0.00 92 1014.1
20260508065329 8 257 0.0 0.0 0.00 0.46 0.00 92 1014.1
20260508064831 8 257 0.0 0.0 0.00 0.46 0.00 92 1013.7
20260508064342 8 257 0.0 0.0 0.00 0.46 0.00 91 1013.7
20260508063903 8 257 0.0 0.0 0.00 0.46 0.00 91 1013.7
20260508063401 8 257 0.0 0.0 0.00 0.46 0.00 91 1013.8
20260508062827 8 257 0.0 0.0 0.00 0.46 0.00 91 1013.8
20260508062327 8 257 0.0 0.0 0.00 0.46 0.00 91 1013.8
20260508061829 8 252 0.0 0.0 0.00 0.46 0.00 92 1013.8
20260508061336 8 252 0.0 0.0 0.00 0.46 0.00 91 1013.8
20260508060841 8 252 0.0 0.0 0.00 0.46 0.00 90 1013.8
20260508060341 8 252 0.0 0.0 0.00 0.71 0.00 91 1013.7
20260508055830 8 244 0.0 0.0 0.00 0.71 0.00 92 1013.7
20260508055351 8 244 0.0 0.0 0.00 0.71 0.00 91 1013.7
20260508054828 8 244 0.0 0.0 0.00 0.71 0.00 91 1013.9
20260508054340 8 244 0.0 0.0 0.00 0.71 0.00 91 1013.9
20260508053842 8 244 0.0 0.0 0.00 0.71 0.00 90 1013.9
20260508053342 8 244 0.0 0.0 0.00 0.71 0.00 90 1013.9
20260508052826 8 244 0.0 0.0 0.00 0.71 0.00 90 1013.9
20260508052348 8 244 0.0 0.0 0.00 0.71 0.00 90 1013.9
20260508051831 8 244 0.0 0.0 0.00 0.71 0.00 89 1014.0
20260508051354 8 244 0.0 0.0 0.00 0.71 0.00 90 1014.0
20260508050842 8 244 0.0 0.0 0.00 0.71 0.00 90 1014.0
20260508050341 8 244 0.0 0.0 0.00 1.04 0.00 90 1013.6
20260508045827 8 244 0.0 0.0 0.00 1.04 0.00 90 1013.6
20260508045327 8 244 0.0 0.0 0.00 1.04 0.00 89 1013.6
20260508044827 8 244 0.0 0.0 0.00 1.04 0.00 89 1013.7
20260508044340 8 244 0.0 0.0 0.00 1.04 0.00 89 1013.7
20260508043902 8 244 0.0 0.0 0.00 1.04 0.00 88 1013.7
20260508043341 8 244 0.0 0.0 0.00 1.04 0.00 88 1013.7
20260508042847 8 244 0.0 0.0 0.00 1.04 0.00 88 1013.7
20260508042328 8 244 0.0 0.0 0.00 1.04 0.00 87 1013.7
20260508041848 8 244 0.0 0.0 0.00 1.04 0.00 87 1013.6
20260508041334 8 244 0.0 0.0 0.00 1.04 0.00 88 1013.6
20260508040840 8 244 0.0 0.0 0.00 1.04 0.00 87 1013.6
20260508040340 8 244 0.0 0.0 0.00 1.09 1.04 88 1013.6
20260508035844 8 244 0.0 0.0 0.00 1.09 1.04 87 1013.6
20260508035346 8 244 0.0 0.0 0.00 1.09 1.04 88 1013.6
20260508034906 8 244 0.0 0.0 0.00 1.09 1.04 88 1013.6
20260508034328 8 244 0.0 0.0 0.00 1.09 1.04 88 1013.6
20260508033829 9 244 0.0 0.0 0.00 1.09 1.04 88 1013.6
20260508033329 9 244 0.0 0.0 0.00 1.09 1.04 87 1013.8
20260508032902 9 244 0.0 0.0 0.00 1.09 1.04 88 1013.8
20260508032329 9 244 0.0 0.0 0.00 1.09 1.04 86 1013.8
20260508031829 9 244 0.0 0.0 0.00 1.09 1.04 87 1013.6
20260508031342 9 244 0.0 0.0 0.00 1.09 1.04 89 1013.6
20260508030906 9 244 0.0 0.0 0.00 1.09 1.04 88 1013.6
20260508030344 9 244 0.0 0.0 0.00 1.12 1.04 89 1013.5
20260508025829 9 244 0.0 0.0 0.00 1.12 1.04 90 1013.5
20260508025331 9 244 0.0 0.0 0.00 1.12 1.04 89 1013.5